Location: Unspecified
(0.0000°N, 0.0000°E)
Time: 09:39:49
(UTC+01:00)

Tiros 1 despin weight - All Passes

Search period start: 19 January 2017 00:00
Search period end: 29 January 2017 00:00
Orbit: 595 x 644 km, 48.2° (Epoch: 18 January)

Date Brightness Start Highest point End Pass type
(mag) Time Alt. Az. Time Alt. Az. Time Alt. Az.
19 Jan - 01:34:46 10° S 01:38:43 27° SE 01:42:40 10° ENE night (unlit)
19 Jan - 03:16:25 10° WSW 03:20:10 24° NW 03:23:54 10° N night (unlit)
19 Jan - 13:43:02 10° NNW 13:47:10 41° NE 13:51:20 10° ESE daylight
19 Jan - 15:26:23 10° W 15:28:36 14° SW 15:30:52 10° SSW daylight
20 Jan - 01:51:05 10° SSW 01:55:46 73° SE 02:00:26 10° NE night (unlit)
20 Jan - 13:59:50 10° NW 14:04:12 66° SW 14:08:36 10° SSE daylight
21 Jan - 00:28:27 10° SSE 00:31:21 16° SE 00:34:13 10° E night (unlit)
21 Jan - 02:08:25 10° WSW 02:12:49 40° NW 02:17:11 10° NNE night (unlit)
21 Jan - 12:36:19 10° N 12:39:52 24° NE 12:43:24 10° ESE daylight
21 Jan - 14:17:45 10° WNW 14:21:15 23° SW 14:24:47 10° S daylight
22 Jan - 00:44:00 10° SSW 00:48:26 41° SE 00:52:51 10° ENE night (unlit)
22 Jan - 02:27:07 10° W 02:29:53 16° NW 02:32:40 10° NNW night (unlit)
22 Jan - 12:52:32 10° NNW 12:56:54 68° NE 13:01:18 10° SE daylight
23 Jan - 01:00:47 10° SW 01:05:28 71° NW 01:10:08 10° NNE night (unlit)
23 Jan - 11:30:14 10° NNE 11:32:31 14° NE 11:34:48 10° E daylight
23 Jan - 13:09:48 10° WNW 13:13:56 40° SW 13:18:05 10° SSE daylight
23 Jan - 23:37:16 10° S 23:41:04 24° SE 23:44:53 10° ENE night (unlit)
24 Jan - 01:18:37 10° WSW 01:22:31 26° NW 01:26:25 10° N night (unlit)
24 Jan - 11:45:31 10° NNW 11:49:36 37° NE 11:53:41 10° ESE daylight
24 Jan - 13:28:31 10° W 13:31:01 15° SW 13:33:32 10° SSW daylight
24 Jan - 23:53:28 10° SSW 23:58:07 66° SE 00:02:46 10° NE night (unlit)
25 Jan - 12:02:14 10° NW 12:06:38 73° SW 12:11:02 10° SSE daylight
25 Jan - 22:31:05 10° SSE 22:33:41 15° SE 22:36:17 10° E night (unlit)
26 Jan - 00:10:42 10° WSW 00:15:09 44° NW 00:19:37 10° NNE night (unlit)
26 Jan - 10:38:51 10° N 10:42:16 22° NE 10:45:40 10° E daylight
26 Jan - 12:20:02 10° WNW 12:23:41 25° SW 12:27:20 10° S daylight
26 Jan - 22:46:27 10° SSW 22:50:47 37° SE 22:55:07 10° ENE night (unlit)
27 Jan - 00:29:12 10° W 00:32:15 17° NW 00:35:16 10° N night (unlit)
27 Jan - 10:54:58 10° NNW 10:59:20 61° NE 11:03:41 10° SE daylight
27 Jan - 23:03:08 10° SW 23:07:48 78° NW 23:12:30 10° NE night (unlit)
28 Jan - 09:32:55 10° NNE 09:34:55 13° NE 09:36:54 10° ENE daylight
28 Jan - 11:12:08 10° WNW 11:16:21 44° SW 11:20:34 10° SSE daylight
28 Jan - 21:39:47 10° S 21:43:25 22° SE 21:47:03 10° ENE visible
28 Jan - 23:20:51 10° WSW 23:24:52 28° NW 23:28:53 10° N night (unlit)
